W9IF-4 Weather Reports


Display with metric or nautical units.
time (UTC)temp
F
wind
direction
speed
MPH
gust
MPH
rain 1hr
in
rain 24hr
in
rain mn
in
humidity
%
barometer
mb
20140423220429 71 270 10.0 0.0 0.00 0.00 0.00 1017.3
20140423220329 71 278 10.0 0.0 0.00 0.00 0.00 1017.3
20140423220229 72 281 9.0 0.0 0.00 0.00 0.00 1017.3
20140423220129 72 270 10.0 0.0 0.00 0.00 0.00 1017.3
20140423220029 72 235 8.0 0.0 0.00 0.00 0.00 1017.3
20140423215829 71 253 5.0 0.0 0.00 0.00 0.00 1017.3
20140423215729 71 271 8.0 0.0 0.00 0.00 0.00 1017.3
20140423215629 72 281 9.0 0.0 0.00 0.00 0.00 1017.3
20140423215529 71 245 8.0 0.0 0.00 0.00 0.00 1017.3
20140423215331 71 280 10.0 0.0 0.00 0.00 0.00 1017.3
20140423215129 71 266 10.0 0.0 0.00 0.00 0.00 1017.3
20140423215029 71 283 10.0 0.0 0.00 0.00 0.00 1017.3
20140423214929 71 304 7.0 0.0 0.00 0.00 0.00 1017.3
20140423214829 70 284 11.0 0.0 0.00 0.00 0.00 1017.3
20140423214729 70 280 10.0 0.0 0.00 0.00 0.00 1017.3
20140423214529 70 264 11.0 0.0 0.00 0.00 0.00 1017.4
20140423214429 70 280 10.0 0.0 0.00 0.00 0.00 1017.4
20140423214329 71 264 10.0 0.0 0.00 0.00 0.00 1017.4
20140423214229 70 269 9.0 0.0 0.00 0.00 0.00 1017.4
20140423214029 71 281 8.0 0.0 0.00 0.00 0.00 1017.5
20140423213929 70 257 9.0 0.0 0.00 0.00 0.00 1017.4
20140423213829 69 277 10.0 0.0 0.00 0.00 0.00 1017.5
20140423213629 70 276 10.0 0.0 0.00 0.00 0.00 1017.4
20140423213529 70 291 9.0 0.0 0.00 0.00 0.00 1017.4
20140423213429 71 259 10.0 0.0 0.00 0.00 0.00 1017.4
20140423213329 70 236 8.0 0.0 0.00 0.00 0.00 1017.4
20140423213229 70 273 9.0 0.0 0.00 0.00 0.00 1017.4
20140423213129 68 267 9.0 0.0 0.00 0.00 0.00 1017.4
20140423212929 69 253 10.0 0.0 0.00 0.00 0.00 1017.4
20140423212829 69 259 11.0 0.0 0.00 0.00 0.00 1017.5
20140423212629 68 288 9.0 0.0 0.00 0.00 0.00 1017.5
20140423212529 67 266 9.0 0.0 0.00 0.00 0.00 1017.5
20140423212429 66 257 9.0 0.0 0.00 0.00 0.00 1017.5
20140423212329 66 262 9.0 0.0 0.00 0.00 0.00 1017.5
20140423212229 66 253 10.0 0.0 0.00 0.00 0.00 1017.5
20140423212129 66 259 10.0 0.0 0.00 0.00 0.00 1017.5
20140423211929 67 257 10.0 0.0 0.00 0.00 0.00 1017.5
20140423211829 67 269 10.0 0.0 0.00 0.00 0.00 1017.5
20140423211729 66 270 9.0 0.0 0.00 0.00 0.00 1017.5
20140423211629 66 269 10.0 0.0 0.00 0.00 0.00 1017.5
20140423211529 67 256 11.0 0.0 0.00 0.00 0.00 1017.5
20140423211429 68 256 11.0 0.0 0.00 0.00 0.00 1017.5
20140423211329 66 263 8.0 0.0 0.00 0.00 0.00 1017.5
20140423211229 66 271 10.0 0.0 0.00 0.00 0.00 1017.5
20140423211129 66 259 11.0 0.0 0.00 0.00 0.00 1017.5
20140423210929 68 262 11.0 0.0 0.00 0.00 0.00 1017.5
20140423210829 69 263 10.0 0.0 0.00 0.00 0.00 1017.5
20140423210729 70 264 10.0 0.0 0.00 0.00 0.00 1017.6
20140423210629 71 273 10.0 0.0 0.00 0.00 0.00 1017.6
20140423210529 71 248 9.0 0.0 0.00 0.00 0.00 1017.6
20140423210429 71 267 10.0 0.0 0.00 0.00 0.00 1017.6
20140423210329 70 262 9.0 0.0 0.00 0.00 0.00 1017.6
20140423210229 70 252 10.0 0.0 0.00 0.00 0.00 1017.6
20140423205929 68 255 11.0 0.0 0.00 0.00 0.00 1017.6
20140423205829 71 260 11.0 0.0 0.00 0.00 0.00 1017.6
20140423205729 72 264 9.0 0.0 0.00 0.00 0.00 1017.7
20140423205529 72 260 11.0 0.0 0.00 0.00 0.00 1017.6
20140423205329 73 232 8.0 0.0 0.00 0.00 0.00 1017.7
20140423205229 74 238 12.0 0.0 0.00 0.00 0.00 1017.6
20140423205129 73 239 12.0 0.0 0.00 0.00 0.00 1017.7
20140423205029 72 266 11.0 0.0 0.00 0.00 0.00 1017.7
20140423204829 73 262 10.0 0.0 0.00 0.00 0.00 1017.7
20140423204729 72 255 9.0 0.0 0.00 0.00 0.00 1017.7
20140423204629 71 256 8.0 0.0 0.00 0.00 0.00 1017.7
20140423204529 71 257 9.0 0.0 0.00 0.00 0.00 1017.7
20140423204329 73 273 9.0 0.0 0.00 0.00 0.00 1017.7
20140423204229 72 238 9.0 0.0 0.00 0.00 0.00 1017.7
20140423204129 70 245 10.0 0.0 0.00 0.00 0.00 1017.7
20140423203929 70 264 12.0 0.0 0.00 0.00 0.00 1017.8
20140423203829 73 255 11.0 0.0 0.00 0.00 0.00 1017.8
20140423203729 74 263 11.0 0.0 0.00 0.00 0.00 1017.8
20140423203629 74 276 9.0 0.0 0.00 0.00 0.00 1017.8
20140423203529 73 277 10.0 0.0 0.00 0.00 0.00 1017.8
20140423203429 72 246 12.0 0.0 0.00 0.00 0.00 1017.8
20140423203329 70 246 12.0 0.0 0.00 0.00 0.00 1017.8
20140423203229 70 267 11.0 0.0 0.00 0.00 0.00 1017.8
20140423203129 69 264 11.0 0.0 0.00 0.00 0.00 1017.8
20140423203029 70 257 10.0 0.0 0.00 0.00 0.00 1017.8
20140423202929 70 273 12.0 0.0 0.00 0.00 0.00 1017.8
20140423202829 72 271 11.0 0.0 0.00 0.00 0.00 1017.9
20140423202729 73 278 9.0 0.0 0.00 0.00 0.00 1017.9
20140423202629 74 259 11.0 0.0 0.00 0.00 0.00 1017.9
20140423202529 73 270 8.0 0.0 0.00 0.00 0.00 1017.9
20140423202429 74 246 11.0 0.0 0.00 0.00 0.00 1017.9
20140423202329 73 239 10.0 0.0 0.00 0.00 0.00 1017.9
20140423202229 74 222 8.0 0.0 0.00 0.00 0.00 1017.9
20140423202129 72 274 11.0 0.0 0.00 0.00 0.00 1017.9
20140423202029 70 222 11.0 0.0 0.00 0.00 0.00 1017.9
20140423201929 72 264 12.0 0.0 0.00 0.00 0.00 1017.9
20140423201729 72 246 11.0 0.0 0.00 0.00 0.00 1017.9
20140423201629 71 269 8.0 0.0 0.00 0.00 0.00 1017.9
20140423201529 73 264 11.0 0.0 0.00 0.00 0.00 1017.9
20140423201429 71 249 10.0 0.0 0.00 0.00 0.00 1017.9
20140423201329 73 264 12.0 0.0 0.00 0.00 0.00 1017.9
20140423201229 73 238 11.0 0.0 0.00 0.00 0.00 1017.9
20140423201129 71 233 9.0 0.0 0.00 0.00 0.00 1018.0
20140423201029 71 271 9.0 0.0 0.00 0.00 0.00 1018.0
20140423200929 70 256 9.0 0.0 0.00 0.00 0.00 1018.0
20140423200829 71 264 11.0 0.0 0.00 0.00 0.00 1018.0
20140423200729 72 250 11.0 0.0 0.00 0.00 0.00 1018.0
20140423200629 74 263 10.0 0.0 0.00 0.00 0.00 1018.0
20140423200529 74 259 9.0 0.0 0.00 0.00 0.00 1018.0
20140423200329 73 235 11.0 0.0 0.00 0.00 0.00 1017.9
20140423200229 70 255 11.0 0.0 0.00 0.00 0.00 1017.9
20140423200129 71 267 11.0 0.0 0.00 0.00 0.00 1018.0
20140423200029 70 266 9.0 0.0 0.00 0.00 0.00 1018.0
20140423195929 71 259 11.0 0.0 0.00 0.00 0.00 1018.0
20140423195829 73 250 11.0 0.0 0.00 0.00 0.00 1018.0
20140423195729 72 262 8.0 0.0 0.00 0.00 0.00 1018.0
20140423195629 72 280 9.0 0.0 0.00 0.00 0.00 1017.9
20140423195529 73 271 9.0 0.0 0.00 0.00 0.00 1017.9
20140423195429 72 243 11.0 0.0 0.00 0.00 0.00 1017.9
20140423195229 71 260 12.0 0.0 0.00 0.00 0.00 1017.9
20140423195129 74 269 12.0 0.0 0.00 0.00 0.00 1017.9
20140423194928 72 252 7.0 0.0 0.00 0.00 0.00 1018.0
20140423194729 71 235 12.0 0.0 0.00 0.00 0.00 1018.0
20140423194629 69 256 10.0 0.0 0.00 0.00 0.00 1018.0
20140423194529 69 267 10.0 0.0 0.00 0.00 0.00 1017.9
20140423194429 71 262 11.0 0.0 0.00 0.00 0.00 1018.0
20140423194329 73 262 12.0 0.0 0.00 0.00 0.00 1018.0
20140423194229 74 235 11.0 0.0 0.00 0.00 0.00 1018.0
20140423194128 73 267 9.0 0.0 0.00 0.00 0.00 1018.0
20140423194029 72 231 10.0 0.0 0.00 0.00 0.00 1018.0
20140423193928 73 245 13.0 0.0 0.00 0.00 0.00 1018.0
20140423193829 72 224 11.0 0.0 0.00 0.00 0.00 1018.0
20140423193728 71 255 11.0 0.0 0.00 0.00 0.00 1018.0
20140423193628 70 269 9.0 0.0 0.00 0.00 0.00 1018.0
20140423193529 71 263 10.0 0.0 0.00 0.00 0.00 1018.0
20140423193429 70 267 12.0 0.0 0.00 0.00 0.00 1018.0
20140423193328 70 249 12.0 0.0 0.00 0.00 0.00 1018.0
20140423193128 74 236 10.0 0.0 0.00 0.00 0.00 1018.0
20140423193028 74 252 9.0 0.0 0.00 0.00 0.00 1018.0
20140423192828 74 249 11.0 0.0 0.00 0.00 0.00 1018.1
20140423192728 74 236 11.0 0.0 0.00 0.00 0.00 1018.1
20140423192628 73 240 12.0 0.0 0.00 0.00 0.00 1018.1
20140423192528 71 226 12.0 0.0 0.00 0.00 0.00 1018.1
20140423192428 69 236 10.0 0.0 0.00 0.00 0.00 1018.1
20140423192328 69 259 12.0 0.0 0.00 0.00 0.00 1018.1
20140423192229 71 269 11.0 0.0 0.00 0.00 0.00 1018.1
20140423192128 72 250 10.0 0.0 0.00 0.00 0.00 1018.1
20140423191928 72 262 11.0 0.0 0.00 0.00 0.00 1018.1
20140423191828 72 245 10.0 0.0 0.00 0.00 0.00 1018.1
20140423191728 71 238 11.0 0.0 0.00 0.00 0.00 1018.1
20140423191628 72 252 12.0 0.0 0.00 0.00 0.00 1018.1
20140423191428 73 276 9.0 0.0 0.00 0.00 0.00 1018.1
20140423191328 75 242 13.0 0.0 0.00 0.00 0.00 1018.1
20140423191228 74 246 13.0 0.0 0.00 0.00 0.00 1018.1
20140423191128 74 248 9.0 0.0 0.00 0.00 0.00 1018.2
20140423191028 75 239 13.0 0.0 0.00 0.00 0.00 1018.1
20140423190928 74 252 10.0 0.0 0.00 0.00 0.00 1018.2
20140423190828 73 252 9.0 0.0 0.00 0.00 0.00 1018.2
20140423190728 72 249 12.0 0.0 0.00 0.00 0.00 1018.2
20140423190628 73 249 11.0 0.0 0.00 0.00 0.00 1018.2
20140423190529 73 235 10.0 0.0 0.00 0.00 0.00 1018.2
20140423190428 72 242 10.0 0.0 0.00 0.00 0.00 1018.1
20140423190329 70 257 11.0 0.0 0.00 0.00 0.00 1018.2
20140423190228 69 245 11.0 0.0 0.00 0.00 0.00 1018.2
20140423190028 71 262 10.0 0.0 0.00 0.00 0.00 1018.1
20140423185929 73 266 12.0 0.0 0.00 0.00 0.00 1018.2
20140423185828 75 243 10.0 0.0 0.00 0.00 0.00 1018.2
20140423185728 74 248 12.0 0.0 0.00 0.00 0.00 1018.2
20140423185628 74 238 11.0 0.0 0.00 0.00 0.00 1018.2
20140423185528 73 238 11.0 0.0 0.00 0.00 0.00 1018.3
20140423185428 72 276 11.0 0.0 0.00 0.00 0.00 1018.3
20140423185328 72 232 10.0 0.0 0.00 0.00 0.00 1018.3
20140423185228 72 264 11.0 0.0 0.00 0.00 0.00 1018.3
20140423185129 71 243 10.0 0.0 0.00 0.00 0.00 1018.3
20140423185028 72 256 11.0 0.0 0.00 0.00 0.00 1018.3
20140423184928 73 243 11.0 0.0 0.00 0.00 0.00 1018.3
20140423184828 71 232 10.0 0.0 0.00 0.00 0.00 1018.3
20140423184728 71 266 12.0 0.0 0.00 0.00 0.00 1018.3
20140423184628 73 243 11.0 0.0 0.00 0.00 0.00 1018.4
20140423184528 73 229 11.0 0.0 0.00 0.00 0.00 1018.3
20140423184428 72 238 11.0 0.0 0.00 0.00 0.00 1018.4
20140423184328 74 255 11.0 0.0 0.00 0.00 0.00 1018.3
20140423184228 73 246 10.0 0.0 0.00 0.00 0.00 1018.3
20140423184028 72 270 11.0 0.0 0.00 0.00 0.00 1018.4
20140423183928 71 249 11.0 0.0 0.00 0.00 0.00 1018.4
20140423183828 70 239 11.0 0.0 0.00 0.00 0.00 1018.4
20140423183728 70 259 12.0 0.0 0.00 0.00 0.00 1018.4
20140423183628 71 250 10.0 0.0 0.00 0.00 0.00 1018.4
20140423183529 72 271 10.0 0.0 0.00 0.00 0.00 1018.4
20140423183428 72 255 10.0 0.0 0.00 0.00 0.00 1018.4
20140423183328 72 245 9.0 0.0 0.00 0.00 0.00 1018.4
20140423183228 73 248 11.0 0.0 0.00 0.00 0.00 1018.4
20140423183028 72 255 10.0 0.0 0.00 0.00 0.00 1018.3
20140423182928 71 228 8.0 0.0 0.00 0.00 0.00 1018.4
20140423182828 71 252 8.0 0.0 0.00 0.00 0.00 1018.4
20140423182628 68 257 10.0 0.0 0.00 0.00 0.00 1018.4
20140423182528 69 257 11.0 0.0 0.00 0.00 0.00 1018.4
20140423182428 69 266 11.0 0.0 0.00 0.00 0.00 1018.4
20140423182328 69 266 11.0 0.0 0.00 0.00 0.00 1018.4
20140423182228 69 248 9.0 0.0 0.00 0.00 0.00 1018.4
20140423182128 70 242 9.0 0.0 0.00 0.00 0.00 1018.3
20140423182028 68 263 10.0 0.0 0.00 0.00 0.00 1018.4
20140423181928 68 276 10.0 0.0 0.00 0.00 0.00 1018.3
20140423181828 68 262 11.0 0.0 0.00 0.00 0.00 1018.3
20140423181728 68 269 11.0 0.0 0.00 0.00 0.00 1018.3
20140423181628 69 259 11.0 0.0 0.00 0.00 0.00 1018.3
20140423181529 69 256 8.0 0.0 0.00 0.00 0.00 1018.3
20140423181428 70 264 11.0 0.0 0.00 0.00 0.00 1018.3
20140423181328 73 269 10.0 0.0 0.00 0.00 0.00 1018.3
20140423181228 74 248 10.0 0.0 0.00 0.00 0.00 1018.2
20140423181128 73 222 10.0 0.0 0.00 0.00 0.00 1018.2
20140423181028 74 249 11.0 0.0 0.00 0.00 0.00 1018.2
20140423180928 74 249 12.0 0.0 0.00 0.00 0.00 1018.1
20140423180828 74 214 10.0 0.0 0.00 0.00 0.00 1018.2
20140423180728 73 231 11.0 0.0 0.00 0.00 0.00 1018.2
20140423180628 73 246 10.0 0.0 0.00 0.00 0.00 1018.1